Location: Gibsondale
(40.9931°N, 80.2478°W)
Time: 18:40:39
(UTC+00:00)

Cosmos 1656 - Pass Details

Date: 29 October 2020
Orbit: 796 x 851 km, 71.1° (Epoch: 23 November)

Event Time Altitude Azimuth Distance (km) Brightness Sun altitude
Rises 23:17:40 0° 207° (SSW) 3,330 7.3 -11.5°
Reaches altitude 10° 23:20:04 10° 209° (SSW) 2,410 6.6 -11.9°
Maximum altitude 23:25:36 75° 294° (WNW) 863 3.9 -12.9°
Drops below altitude 10° 23:31:15 10° 20° (NNE) 2,462 5.9 -14.0°
Sets 23:33:43 0° 22° (NNE) 3,407 6.6 -14.5°
